Regional Weather Roundup
Issued by NWS

Home | Current Version | Previous Version | Text Only | Print | Product List | Glossary Off
Versions: 1 2 3 4 5 6 7 8 9 10 11 12 13 14 15 16 17 18 19 20 21 22 23 24 25 26 27 28 29 30 31 32 33 34 35 36 37 38 39 40 41 42 43 44 45 46 47 48 49 50

000
ASUS43 KLMK 191702
RWRKY
KENTUCKY REGIONAL WEATHER ROUNDUP
NATIONAL WEATHER SERVICE LOUISVILLE KY
100 PM EDT SUN OCT 19 2014

NOTE "FAIR" INDICATES FEW OR NO CLOUDS BELOW 12,000 FEET
WITH NO SIGNIFICANT WEATHER AND/OR OBSTRUCTIONS TO VISIBILITY.

KYZ001>023-026-027-061>063-070>075-191800-
WESTERN AND SOUTH CENTRAL KENTUCKY

CITY           SKY/WX    TMP DP  RH WIND       PRES   REMARKS
PADUCAH        MOSUNNY   59  44  57 NW6       30.24F
HENDERSON      CLOUDY    54  39  58 CALM      30.25F
OWENSBORO      PTSUNNY   57  43  59 S7        30.25F
HOPKINSVILLE   SUNNY     58  44  59 VRB2      30.23F
BOWLING GREEN  PTSUNNY   57  43  59 E6        30.24F
GLASGOW        NOT AVBL
$$

KYZ024-025-028>034-038-045-046-053-191800-
NORTH CENTRAL KENTUCKY

CITY           SKY/WX    TMP DP  RH WIND       PRES   REMARKS
LOUISVILLE/SDF PTSUNNY   56  40  55 SW6       30.24F
LOUISVILLE/LOU MOSUNNY   55  40  56 MISG      30.25F
FORT KNOX      PTSUNNY   53  41  62 VRB1      30.23F
$$

KYZ035>037-039>044-047>052-055>060-089>105-191800-
NORTHEAST KENTUCKY

CITY           SKY/WX    TMP DP  RH WIND       PRES   REMARKS
LEXINGTON      SUNNY     56  39  53 CALM      30.23F
COVINGTON      MOSUNNY   52  37  56 VRB3      30.23F
FRANKFORT      MOSUNNY   54  39  57 VRB3      30.23F
$$

KYZ054-064>069-076>088-106>120-191800-
SOUTHEAST KENTUCKY

CITY           SKY/WX    TMP DP  RH WIND       PRES   REMARKS
JACKSON        PTSUNNY   52  38  58 VRB3      30.22F
LONDON         SUNNY     54  39  57 S6        30.22F
SOMERSET       PTSUNNY   52  41  66 NW5       30.24F
MIDDLESBORO    SUNNY     55  41  59 CALM      30.22F
MONTICELLO     SUNNY     56  42  59 CALM      30.24F
$$



USA.gov is the U.S. government's official web portal to all federal, state and local government web resources and services.